TimeCST,TemperatureF,Dew PointF,Humidity,Sea Level PressureIn,VisibilityMPH,Wind Direction,Wind SpeedMPH,Gust SpeedMPH,PrecipitationIn,Events,Conditions,WindDirDegrees,DateUTC
12:53 AM,37.9,30.0,73,30.26,10.0,WNW,10.4,-,N/A,,Clear,290,2012-11-23 06:53:00
1:53 AM,41.0,28.0,60,30.27,10.0,NW,12.7,23.0,N/A,,Clear,310,2012-11-23 07:53:00
2:53 AM,37.9,17.1,43,30.31,10.0,NW,21.9,34.5,N/A,,Clear,320,2012-11-23 08:53:00
3:53 AM,33.1,15.1,48,30.35,10.0,NW,28.8,41.4,N/A,,Clear,320,2012-11-23 09:53:00
4:53 AM,30.0,14.0,51,30.40,10.0,NW,12.7,32.2,N/A,,Clear,320,2012-11-23 10:53:00
5:53 AM,28.9,14.0,54,30.44,10.0,NW,19.6,34.5,N/A,,Clear,320,2012-11-23 11:53:00
6:53 AM,27.0,15.1,61,30.46,10.0,NNW,11.5,18.4,N/A,,Clear,330,2012-11-23 12:53:00
7:53 AM,27.0,15.1,61,30.48,10.0,NW,17.3,27.6,N/A,,Clear,320,2012-11-23 13:53:00
8:53 AM,28.0,14.0,56,30.51,10.0,NNW,18.4,28.8,N/A,,Clear,330,2012-11-23 14:53:00
9:53 AM,30.0,14.0,51,30.53,10.0,NW,13.8,25.3,N/A,,Clear,310,2012-11-23 15:53:00
10:53 AM,32.0,14.0,48,30.53,10.0,NNW,17.3,25.3,N/A,,Clear,340,2012-11-23 16:53:00
11:53 AM,34.0,12.0,40,30.52,10.0,NNW,15.0,23.0,N/A,,Clear,330,2012-11-23 17:53:00
12:53 PM,36.0,12.0,37,30.50,10.0,NW,13.8,20.7,N/A,,Clear,310,2012-11-23 18:53:00
1:53 PM,36.0,10.0,34,30.48,10.0,NW,16.1,24.2,N/A,,Clear,310,2012-11-23 19:53:00
2:53 PM,36.0,9.0,33,30.48,10.0,NW,16.1,23.0,N/A,,Clear,320,2012-11-23 20:53:00
3:53 PM,36.0,9.0,33,30.48,10.0,NW,9.2,18.4,N/A,,Clear,310,2012-11-23 21:53:00
4:53 PM,33.1,9.0,37,30.48,10.0,NW,8.1,-,N/A,,Clear,320,2012-11-23 22:53:00
5:53 PM,30.0,9.0,41,30.48,10.0,NW,5.8,-,N/A,,Clear,320,2012-11-23 23:53:00
6:53 PM,26.1,9.0,49,30.49,10.0,NW,4.6,-,N/A,,Clear,310,2012-11-24 00:53:00
7:53 PM,25.0,9.0,51,30.48,10.0,WNW,3.5,-,N/A,,Clear,290,2012-11-24 01:53:00
8:53 PM,25.0,9.0,51,30.47,10.0,Calm,Calm,-,N/A,,Clear,0,2012-11-24 02:53:00
9:53 PM,21.9,10.0,60,30.47,10.0,WNW,5.8,-,N/A,,Clear,290,2012-11-24 03:53:00
10:53 PM,23.0,9.0,55,30.46,10.0,WNW,3.5,-,N/A,,Clear,290,2012-11-24 04:53:00
11:53 PM,23.0,9.0,55,30.44,10.0,WSW,4.6,-,N/A,,Clear,250,2012-11-24 05:53:00